owner,sensor,date,latitude,longitude,vertical_datum,sea_water_temperature,qcFlag 
TCOON,ioos:station:TCOON:074:1,2019-03-01T03:00:00Z,27.8516,-97.4820,0.0,18.2,11111222 
TCOON,ioos:station:TCOON:074:1,2019-03-01T03:30:00Z,27.8516,-97.4820,0.0,18.0,11111222 
TCOON,ioos:station:TCOON:074:1,2019-03-01T04:30:00Z,27.8516,-97.4820,0.0,18.0,11111222 
TCOON,ioos:station:TCOON:074:1,2019-03-01T05:30:00Z,27.8516,-97.4820,0.0,17.9,11111222 
TCOON,ioos:station:TCOON:074:1,2019-03-01T06:30:00Z,27.8516,-97.4820,0.0,17.7,11111222 
TCOON,ioos:station:TCOON:074:1,2019-03-01T07:30:00Z,27.8516,-97.4820,0.0,17.5,11111222 
TCOON,ioos:station:TCOON:074:1,2019-03-01T08:30:00Z,27.8516,-97.4820,0.0,17.4,11111222 
TCOON,ioos:station:TCOON:074:1,2019-03-01T09:30:00Z,27.8516,-97.4820,0.0,17.5,11111222 
TCOON,ioos:station:TCOON:074:1,2019-03-01T10:30:00Z,27.8516,-97.4820,0.0,17.1,11111222 
TCOON,ioos:station:TCOON:074:1,2019-03-01T11:30:00Z,27.8516,-97.4820,0.0,17.0,11111222 
TCOON,ioos:station:TCOON:074:1,2019-03-01T12:30:00Z,27.8516,-97.4820,0.0,16.8,11111222 
TCOON,ioos:station:TCOON:074:1,2019-03-01T13:30:00Z,27.8516,-97.4820,0.0,16.8,11111222 
TCOON,ioos:station:TCOON:074:1,2019-03-01T14:30:00Z,27.8516,-97.4820,0.0,16.6,11111222 
TCOON,ioos:station:TCOON:074:1,2019-03-01T16:00:00Z,27.8516,-97.4820,0.0,16.5,11111222 
TCOON,ioos:station:TCOON:074:1,2019-03-01T16:30:00Z,27.8516,-97.4820,0.0,16.6,11111222 
TCOON,ioos:station:TCOON:074:1,2019-03-01T17:30:00Z,27.8516,-97.4820,0.0,16.5,11111222 
TCOON,ioos:station:TCOON:074:1,2019-03-01T18:30:00Z,27.8516,-97.4820,0.0,16.6,11111222 
TCOON,ioos:station:TCOON:074:1,2019-03-01T19:30:00Z,27.8516,-97.4820,0.0,16.6,11111222 
TCOON,ioos:station:TCOON:074:1,2019-03-01T20:30:00Z,27.8516,-97.4820,0.0,16.9,11111222 
TCOON,ioos:station:TCOON:074:1,2019-03-01T21:30:00Z,27.8516,-97.4820,0.0,16.9,11111222 
TCOON,ioos:station:TCOON:074:1,2019-03-01T22:30:00Z,27.8516,-97.4820,0.0,17.1,11111222 
TCOON,ioos:station:TCOON:074:1,2019-03-01T23:30:00Z,27.8516,-97.4820,0.0,17.0,11111222 
TCOON,ioos:station:TCOON:074:1,2019-03-02T00:30:00Z,27.8516,-97.4820,0.0,17.1,11111222 
TCOON,ioos:station:TCOON:074:1,2019-03-02T01:30:00Z,27.8516,-97.4820,0.0,17.3,11111222 
TCOON,ioos:station:TCOON:074:1,2019-03-02T02:30:00Z,27.8516,-97.4820,0.0,17.3,11111222 
TCOON,ioos:station:TCOON:074:1,2019-03-02T03:30:00Z,27.8516,-97.4820,0.0,17.2,11111222 
TCOON,ioos:station:TCOON:074:1,2019-03-02T04:30:00Z,27.8516,-97.4820,0.0,17.2,11111222 
TCOON,ioos:station:TCOON:074:1,2019-03-02T05:30:00Z,27.8516,-97.4820,0.0,17.1,11111222 
TCOON,ioos:station:TCOON:074:1,2019-03-02T06:30:00Z,27.8516,-97.4820,0.0,17.1,11111222 
TCOON,ioos:station:TCOON:074:1,2019-03-02T07:30:00Z,27.8516,-97.4820,0.0,17.1,11111222 
TCOON,ioos:station:TCOON:074:1,2019-03-02T08:30:00Z,27.8516,-97.4820,0.0,17.1,11111222 
TCOON,ioos:station:TCOON:074:1,2019-03-02T09:30:00Z,27.8516,-97.4820,0.0,17.1,11111222 
TCOON,ioos:station:TCOON:074:1,2019-03-02T10:30:00Z,27.8516,-97.4820,0.0,17.1,11111222 
TCOON,ioos:station:TCOON:074:1,2019-03-02T11:30:00Z,27.8516,-97.4820,0.0,17.1,11111222 
TCOON,ioos:station:TCOON:074:1,2019-03-02T12:30:00Z,27.8516,-97.4820,0.0,17.1,11111222 
TCOON,ioos:station:TCOON:074:1,2019-03-02T13:30:00Z,27.8516,-97.4820,0.0,17.1,11111222 
TCOON,ioos:station:TCOON:074:1,2019-03-02T14:30:00Z,27.8516,-97.4820,0.0,17.2,11111222 
TCOON,ioos:station:TCOON:074:1,2019-03-02T15:30:00Z,27.8516,-97.4820,0.0,17.2,11111222 
TCOON,ioos:station:TCOON:074:1,2019-03-02T16:30:00Z,27.8516,-97.4820,0.0,17.4,11111222 
TCOON,ioos:station:TCOON:074:1,2019-03-02T17:30:00Z,27.8516,-97.4820,0.0,17.6,11111222 
TCOON,ioos:station:TCOON:074:1,2019-03-02T18:30:00Z,27.8516,-97.4820,0.0,17.9,11111222 
TCOON,ioos:station:TCOON:074:1,2019-03-02T19:30:00Z,27.8516,-97.4820,0.0,18.1,11111222 
TCOON,ioos:station:TCOON:074:1,2019-03-02T20:30:00Z,27.8516,-97.4820,0.0,18.1,11111222 
TCOON,ioos:station:TCOON:074:1,2019-03-02T21:30:00Z,27.8516,-97.4820,0.0,18.1,11111222 
TCOON,ioos:station:TCOON:074:1,2019-03-02T22:30:00Z,27.8516,-97.4820,0.0,18.0,11111222 
TCOON,ioos:station:TCOON:074:1,2019-03-02T23:30:00Z,27.8516,-97.4820,0.0,18.1,11111222 
TCOON,ioos:station:TCOON:074:1,2019-03-03T00:30:00Z,27.8516,-97.4820,0.0,18.1,11111222 
TCOON,ioos:station:TCOON:074:1,2019-03-03T01:30:00Z,27.8516,-97.4820,0.0,18.2,11111222 
TCOON,ioos:station:TCOON:074:1,2019-03-03T02:30:00Z,27.8516,-97.4820,0.0,18.2,11111222 
TCOON,ioos:station:TCOON:074:1,2019-03-03T03:30:00Z,27.8516,-97.4820,0.0,18.2,11111222 
TCOON,ioos:station:TCOON:074:1,2019-03-03T04:30:00Z,27.8516,-97.4820,0.0,18.2,11111222 
TCOON,ioos:station:TCOON:074:1,2019-03-03T05:30:00Z,27.8516,-97.4820,0.0,18.2,11111222 
TCOON,ioos:station:TCOON:074:1,2019-03-03T06:30:00Z,27.8516,-97.4820,0.0,18.3,11111222 
TCOON,ioos:station:TCOON:074:1,2019-03-03T07:30:00Z,27.8516,-97.4820,0.0,18.3,11111222 
TCOON,ioos:station:TCOON:074:1,2019-03-03T08:30:00Z,27.8516,-97.4820,0.0,18.3,11111222 
TCOON,ioos:station:TCOON:074:1,2019-03-03T09:30:00Z,27.8516,-97.4820,0.0,18.3,11111222 
TCOON,ioos:station:TCOON:074:1,2019-03-03T10:30:00Z,27.8516,-97.4820,0.0,18.3,11111222 
TCOON,ioos:station:TCOON:074:1,2019-03-03T11:30:00Z,27.8516,-97.4820,0.0,18.3,11111222 
TCOON,ioos:station:TCOON:074:1,2019-03-03T12:30:00Z,27.8516,-97.4820,0.0,18.3,11111222 
TCOON,ioos:station:TCOON:074:1,2019-03-03T13:30:00Z,27.8516,-97.4820,0.0,18.3,11111222 
TCOON,ioos:station:TCOON:074:1,2019-03-03T14:30:00Z,27.8516,-97.4820,0.0,18.3,11111222 
TCOON,ioos:station:TCOON:074:1,2019-03-03T15:30:00Z,27.8516,-97.4820,0.0,18.2,11111222 
TCOON,ioos:station:TCOON:074:1,2019-03-03T16:30:00Z,27.8516,-97.4820,0.0,18.1,11111222 
TCOON,ioos:station:TCOON:074:1,2019-03-03T17:30:00Z,27.8516,-97.4820,0.0,18.0,11111222 
TCOON,ioos:station:TCOON:074:1,2019-03-03T18:30:00Z,27.8516,-97.4820,0.0,17.9,11111222 
TCOON,ioos:station:TCOON:074:1,2019-03-03T19:30:00Z,27.8516,-97.4820,0.0,17.9,11111222 
TCOON,ioos:station:TCOON:074:1,2019-03-03T20:30:00Z,27.8516,-97.4820,0.0,17.7,11111222 
TCOON,ioos:station:TCOON:074:1,2019-03-03T21:30:00Z,27.8516,-97.4820,0.0,17.5,11111222 
TCOON,ioos:station:TCOON:074:1,2019-03-03T22:30:00Z,27.8516,-97.4820,0.0,17.2,11111222 
TCOON,ioos:station:TCOON:074:1,2019-03-03T23:30:00Z,27.8516,-97.4820,0.0,17.0,11111222 
TCOON,ioos:station:TCOON:074:1,2019-03-04T00:30:00Z,27.8516,-97.4820,0.0,16.7,11111222 
TCOON,ioos:station:TCOON:074:1,2019-03-04T01:30:00Z,27.8516,-97.4820,0.0,16.4,11111222 
TCOON,ioos:station:TCOON:074:1,2019-03-04T02:30:00Z,27.8516,-97.4820,0.0,16.3,11111222 
TCOON,ioos:station:TCOON:074:1,2019-03-04T03:30:00Z,27.8516,-97.4820,0.0,16.0,11111222 
TCOON,ioos:station:TCOON:074:1,2019-03-04T04:30:00Z,27.8516,-97.4820,0.0,15.9,11111222 
TCOON,ioos:station:TCOON:074:1,2019-03-04T05:30:00Z,27.8516,-97.4820,0.0,15.8,11111222 
TCOON,ioos:station:TCOON:074:1,2019-03-04T06:30:00Z,27.8516,-97.4820,0.0,15.7,11111222 
TCOON,ioos:station:TCOON:074:1,2019-03-04T07:30:00Z,27.8516,-97.4820,0.0,15.4,11111222 
TCOON,ioos:station:TCOON:074:1,2019-03-04T08:30:00Z,27.8516,-97.4820,0.0,15.2,11111222 
TCOON,ioos:station:TCOON:074:1,2019-03-04T09:30:00Z,27.8516,-97.4820,0.0,15.2,11111222 
TCOON,ioos:station:TCOON:074:1,2019-03-04T10:30:00Z,27.8516,-97.4820,0.0,15.0,11111222 
TCOON,ioos:station:TCOON:074:1,2019-03-04T11:30:00Z,27.8516,-97.4820,0.0,14.7,11111222 
TCOON,ioos:station:TCOON:074:1,2019-03-04T12:30:00Z,27.8516,-97.4820,0.0,14.1,11111222 
TCOON,ioos:station:TCOON:074:1,2019-03-04T13:30:00Z,27.8516,-97.4820,0.0,13.4,11111222 
TCOON,ioos:station:TCOON:074:1,2019-03-04T14:30:00Z,27.8516,-97.4820,0.0,13.3,11111222 
TCOON,ioos:station:TCOON:074:1,2019-03-04T15:30:00Z,27.8516,-97.4820,0.0,12.8,11111222 
TCOON,ioos:station:TCOON:074:1,2019-03-04T16:30:00Z,27.8516,-97.4820,0.0,12.6,11111222 
TCOON,ioos:station:TCOON:074:1,2019-03-04T17:30:00Z,27.8516,-97.4820,0.0,12.2,11111222 
TCOON,ioos:station:TCOON:074:1,2019-03-04T18:30:00Z,27.8516,-97.4820,0.0,11.9,11111222 
TCOON,ioos:station:TCOON:074:1,2019-03-04T19:30:00Z,27.8516,-97.4820,0.0,11.8,11111222 
TCOON,ioos:station:TCOON:074:1,2019-03-04T20:30:00Z,27.8516,-97.4820,0.0,11.5,11111222 
TCOON,ioos:station:TCOON:074:1,2019-03-04T21:30:00Z,27.8516,-97.4820,0.0,11.5,11111222 
TCOON,ioos:station:TCOON:074:1,2019-03-04T22:30:00Z,27.8516,-97.4820,0.0,11.4,11111222 
TCOON,ioos:station:TCOON:074:1,2019-03-04T23:30:00Z,27.8516,-97.4820,0.0,11.3,11111222 
TCOON,ioos:station:TCOON:074:1,2019-03-05T00:30:00Z,27.8516,-97.4820,0.0,11.4,11111222 
TCOON,ioos:station:TCOON:074:1,2019-03-05T01:30:00Z,27.8516,-97.4820,0.0,11.2,11111222 
TCOON,ioos:station:TCOON:074:1,2019-03-05T02:30:00Z,27.8516,-97.4820,0.0,11.0,11111222 
TCOON,ioos:station:TCOON:074:1,2019-03-05T03:30:00Z,27.8516,-97.4820,0.0,10.9,11111222 
TCOON,ioos:station:TCOON:074:1,2019-03-05T04:30:00Z,27.8516,-97.4820,0.0,10.9,11111222 
TCOON,ioos:station:TCOON:074:1,2019-03-05T05:30:00Z,27.8516,-97.4820,0.0,10.8,11111222 
TCOON,ioos:station:TCOON:074:1,2019-03-05T06:30:00Z,27.8516,-97.4820,0.0,10.8,11111222 
TCOON,ioos:station:TCOON:074:1,2019-03-05T07:30:00Z,27.8516,-97.4820,0.0,11.0,11111222 
TCOON,ioos:station:TCOON:074:1,2019-03-05T08:30:00Z,27.8516,-97.4820,0.0,10.9,11111222 
TCOON,ioos:station:TCOON:074:1,2019-03-05T09:30:00Z,27.8516,-97.4820,0.0,10.8,11111222 
TCOON,ioos:station:TCOON:074:1,2019-03-05T10:30:00Z,27.8516,-97.4820,0.0,10.7,11111222 
TCOON,ioos:station:TCOON:074:1,2019-03-05T11:30:00Z,27.8516,-97.4820,0.0,10.3,11111222 
TCOON,ioos:station:TCOON:074:1,2019-03-05T12:30:00Z,27.8516,-97.4820,0.0,10.3,11111222 
TCOON,ioos:station:TCOON:074:1,2019-03-05T13:30:00Z,27.8516,-97.4820,0.0,10.2,11111222 
TCOON,ioos:station:TCOON:074:1,2019-03-05T14:30:00Z,27.8516,-97.4820,0.0,9.7,11113222 
TCOON,ioos:station:TCOON:074:1,2019-03-05T15:30:00Z,27.8516,-97.4820,0.0,9.9,11113222 
TCOON,ioos:station:TCOON:074:1,2019-03-05T16:30:00Z,27.8516,-97.4820,0.0,10.4,11111222 
TCOON,ioos:station:TCOON:074:1,2019-03-05T17:30:00Z,27.8516,-97.4820,0.0,9.7,11113222 
TCOON,ioos:station:TCOON:074:1,2019-03-05T18:30:00Z,27.8516,-97.4820,0.0,9.9,11113222 
TCOON,ioos:station:TCOON:074:1,2019-03-05T19:30:00Z,27.8516,-97.4820,0.0,10.2,11111222 
TCOON,ioos:station:TCOON:074:1,2019-03-05T20:30:00Z,27.8516,-97.4820,0.0,10.6,11111222 
TCOON,ioos:station:TCOON:074:1,2019-03-05T22:30:00Z,27.8516,-97.4820,0.0,11.8,11111222 
TCOON,ioos:station:TCOON:074:1,2019-03-05T23:30:00Z,27.8516,-97.4820,0.0,11.8,11111222 
TCOON,ioos:station:TCOON:074:1,2019-03-06T00:30:00Z,27.8516,-97.4820,0.0,11.5,11111222 
TCOON,ioos:station:TCOON:074:1,2019-03-06T01:30:00Z,27.8516,-97.4820,0.0,11.5,11111222 
TCOON,ioos:station:TCOON:074:1,2019-03-06T02:30:00Z,27.8516,-97.4820,0.0,11.2,11111222 
TCOON,ioos:station:TCOON:074:1,2019-03-06T03:30:00Z,27.8516,-97.4820,0.0,11.1,11111222 
TCOON,ioos:station:TCOON:074:1,2019-03-06T04:30:00Z,27.8516,-97.4820,0.0,10.9,11111222 
TCOON,ioos:station:TCOON:074:1,2019-03-06T05:30:00Z,27.8516,-97.4820,0.0,10.6,11111222 
TCOON,ioos:station:TCOON:074:1,2019-03-06T06:30:00Z,27.8516,-97.4820,0.0,10.4,11111222 
TCOON,ioos:station:TCOON:074:1,2019-03-06T07:30:00Z,27.8516,-97.4820,0.0,10.7,11111222 
TCOON,ioos:station:TCOON:074:1,2019-03-06T08:30:00Z,27.8516,-97.4820,0.0,10.5,11111222 
TCOON,ioos:station:TCOON:074:1,2019-03-06T09:30:00Z,27.8516,-97.4820,0.0,10.4,11111222 
TCOON,ioos:station:TCOON:074:1,2019-03-06T10:30:00Z,27.8516,-97.4820,0.0,10.3,11111222 
TCOON,ioos:station:TCOON:074:1,2019-03-06T11:30:00Z,27.8516,-97.4820,0.0,10.1,11111222 
TCOON,ioos:station:TCOON:074:1,2019-03-06T12:30:00Z,27.8516,-97.4820,0.0,9.7,11113222 
TCOON,ioos:station:TCOON:074:1,2019-03-06T13:30:00Z,27.8516,-97.4820,0.0,9.4,11113222 
TCOON,ioos:station:TCOON:074:1,2019-03-06T14:30:00Z,27.8516,-97.4820,0.0,9.3,11113222 
TCOON,ioos:station:TCOON:074:1,2019-03-06T15:30:00Z,27.8516,-97.4820,0.0,10.3,11111222 
TCOON,ioos:station:TCOON:074:1,2019-03-06T16:30:00Z,27.8516,-97.4820,0.0,10.6,11111222 
TCOON,ioos:station:TCOON:074:1,2019-03-06T17:30:00Z,27.8516,-97.4820,0.0,10.6,11111222 
TCOON,ioos:station:TCOON:074:1,2019-03-06T18:30:00Z,27.8516,-97.4820,0.0,10.7,11111222 
TCOON,ioos:station:TCOON:074:1,2019-03-06T19:30:00Z,27.8516,-97.4820,0.0,11.0,11111222 
TCOON,ioos:station:TCOON:074:1,2019-03-06T20:30:00Z,27.8516,-97.4820,0.0,11.6,11111222 
TCOON,ioos:station:TCOON:074:1,2019-03-06T21:30:00Z,27.8516,-97.4820,0.0,11.8,11111222 
TCOON,ioos:station:TCOON:074:1,2019-03-06T22:30:00Z,27.8516,-97.4820,0.0,11.8,11111222 
TCOON,ioos:station:TCOON:074:1,2019-03-06T23:30:00Z,27.8516,-97.4820,0.0,12.5,11111222 
TCOON,ioos:station:TCOON:074:1,2019-03-07T00:30:00Z,27.8516,-97.4820,0.0,12.6,11111222 
TCOON,ioos:station:TCOON:074:1,2019-03-07T01:30:00Z,27.8516,-97.4820,0.0,12.4,11111222 
TCOON,ioos:station:TCOON:074:1,2019-03-07T02:30:00Z,27.8516,-97.4820,0.0,12.3,11111222 
TCOON,ioos:station:TCOON:074:1,2019-03-07T03:30:00Z,27.8516,-97.4820,0.0,12.1,11111222 
TCOON,ioos:station:TCOON:074:1,2019-03-07T04:30:00Z,27.8516,-97.4820,0.0,11.7,11111222 
TCOON,ioos:station:TCOON:074:1,2019-03-07T05:30:00Z,27.8516,-97.4820,0.0,11.6,11111222 
TCOON,ioos:station:TCOON:074:1,2019-03-07T06:30:00Z,27.8516,-97.4820,0.0,11.8,11111222 
TCOON,ioos:station:TCOON:074:1,2019-03-07T07:30:00Z,27.8516,-97.4820,0.0,11.7,11111222 
TCOON,ioos:station:TCOON:074:1,2019-03-07T08:30:00Z,27.8516,-97.4820,0.0,11.7,11111222 
TCOON,ioos:station:TCOON:074:1,2019-03-07T09:30:00Z,27.8516,-97.4820,0.0,11.7,11111222 
TCOON,ioos:station:TCOON:074:1,2019-03-07T10:30:00Z,27.8516,-97.4820,0.0,11.7,11111222 
TCOON,ioos:station:TCOON:074:1,2019-03-07T11:30:00Z,27.8516,-97.4820,0.0,11.4,11111222 
TCOON,ioos:station:TCOON:074:1,2019-03-07T12:30:00Z,27.8516,-97.4820,0.0,11.3,11111222 
TCOON,ioos:station:TCOON:074:1,2019-03-07T13:30:00Z,27.8516,-97.4820,0.0,11.1,11111222 
TCOON,ioos:station:TCOON:074:1,2019-03-07T14:30:00Z,27.8516,-97.4820,0.0,11.0,11111222 
TCOON,ioos:station:TCOON:074:1,2019-03-07T15:30:00Z,27.8516,-97.4820,0.0,11.3,11111222 
TCOON,ioos:station:TCOON:074:1,2019-03-07T16:30:00Z,27.8516,-97.4820,0.0,11.5,11111222 
TCOON,ioos:station:TCOON:074:1,2019-03-07T17:30:00Z,27.8516,-97.4820,0.0,11.8,11111222 
TCOON,ioos:station:TCOON:074:1,2019-03-07T18:30:00Z,27.8516,-97.4820,0.0,11.9,11111222 
TCOON,ioos:station:TCOON:074:1,2019-03-07T19:30:00Z,27.8516,-97.4820,0.0,12.1,11111222 
TCOON,ioos:station:TCOON:074:1,2019-03-07T20:30:00Z,27.8516,-97.4820,0.0,12.8,11111222 
TCOON,ioos:station:TCOON:074:1,2019-03-07T21:30:00Z,27.8516,-97.4820,0.0,14.5,11111222 
TCOON,ioos:station:TCOON:074:1,2019-03-07T22:30:00Z,27.8516,-97.4820,0.0,14.0,11111222 
TCOON,ioos:station:TCOON:074:1,2019-03-07T23:30:00Z,27.8516,-97.4820,0.0,14.7,11111222 
TCOON,ioos:station:TCOON:074:1,2019-03-08T00:30:00Z,27.8516,-97.4820,0.0,14.4,11111222 
TCOON,ioos:station:TCOON:074:1,2019-03-08T01:30:00Z,27.8516,-97.4820,0.0,14.5,11111222 
TCOON,ioos:station:TCOON:074:1,2019-03-08T02:30:00Z,27.8516,-97.4820,0.0,14.3,11111222 
TCOON,ioos:station:TCOON:074:1,2019-03-08T03:30:00Z,27.8516,-97.4820,0.0,14.6,11111222 
TCOON,ioos:station:TCOON:074:1,2019-03-08T04:30:00Z,27.8516,-97.4820,0.0,14.6,11111222 
TCOON,ioos:station:TCOON:074:1,2019-03-08T05:30:00Z,27.8516,-97.4820,0.0,14.7,11111222 
TCOON,ioos:station:TCOON:074:1,2019-03-08T06:30:00Z,27.8516,-97.4820,0.0,14.5,11111222 
TCOON,ioos:station:TCOON:074:1,2019-03-08T07:30:00Z,27.8516,-97.4820,0.0,15.1,11111222 
TCOON,ioos:station:TCOON:074:1,2019-03-08T08:30:00Z,27.8516,-97.4820,0.0,15.2,11111222 
TCOON,ioos:station:TCOON:074:1,2019-03-08T09:30:00Z,27.8516,-97.4820,0.0,15.3,11111222 
TCOON,ioos:station:TCOON:074:1,2019-03-08T10:30:00Z,27.8516,-97.4820,0.0,15.3,11111222 
TCOON,ioos:station:TCOON:074:1,2019-03-08T11:30:00Z,27.8516,-97.4820,0.0,15.3,11111222 
TCOON,ioos:station:TCOON:074:1,2019-03-08T12:30:00Z,27.8516,-97.4820,0.0,15.2,11111222 
TCOON,ioos:station:TCOON:074:1,2019-03-08T13:30:00Z,27.8516,-97.4820,0.0,15.0,11111222 
TCOON,ioos:station:TCOON:074:1,2019-03-08T16:00:00Z,27.8516,-97.4820,0.0,15.2,11111222 
TCOON,ioos:station:TCOON:074:1,2019-03-08T17:00:00Z,27.8516,-97.4820,0.0,15.4,11111222 
TCOON,ioos:station:TCOON:074:1,2019-03-08T17:30:00Z,27.8516,-97.4820,0.0,15.5,11111222 
TCOON,ioos:station:TCOON:074:1,2019-03-08T18:30:00Z,27.8516,-97.4820,0.0,16.0,11111222 
TCOON,ioos:station:TCOON:074:1,2019-03-08T19:30:00Z,27.8516,-97.4820,0.0,16.4,11111222 
TCOON,ioos:station:TCOON:074:1,2019-03-08T20:30:00Z,27.8516,-97.4820,0.0,17.0,11111222 
TCOON,ioos:station:TCOON:074:1,2019-03-08T21:30:00Z,27.8516,-97.4820,0.0,17.3,11111222 
TCOON,ioos:station:TCOON:074:1,2019-03-08T22:30:00Z,27.8516,-97.4820,0.0,17.4,11111222 
TCOON,ioos:station:TCOON:074:1,2019-03-08T23:30:00Z,27.8516,-97.4820,0.0,17.3,11111222 
TCOON,ioos:station:TCOON:074:1,2019-03-09T00:30:00Z,27.8516,-97.4820,0.0,17.2,11111222 
TCOON,ioos:station:TCOON:074:1,2019-03-09T01:30:00Z,27.8516,-97.4820,0.0,17.3,11111222 
TCOON,ioos:station:TCOON:074:1,2019-03-09T02:30:00Z,27.8516,-97.4820,0.0,17.3,11111222 
TCOON,ioos:station:TCOON:074:1,2019-03-09T03:30:00Z,27.8516,-97.4820,0.0,17.3,11111222 
TCOON,ioos:station:TCOON:074:1,2019-03-09T04:30:00Z,27.8516,-97.4820,0.0,17.4,11111222 
TCOON,ioos:station:TCOON:074:1,2019-03-09T05:30:00Z,27.8516,-97.4820,0.0,17.9,11111222 
TCOON,ioos:station:TCOON:074:1,2019-03-09T06:30:00Z,27.8516,-97.4820,0.0,18.0,11111222 
TCOON,ioos:station:TCOON:074:1,2019-03-09T07:30:00Z,27.8516,-97.4820,0.0,18.2,11111222 
TCOON,ioos:station:TCOON:074:1,2019-03-09T08:30:00Z,27.8516,-97.4820,0.0,18.3,11111222 
TCOON,ioos:station:TCOON:074:1,2019-03-09T09:30:00Z,27.8516,-97.4820,0.0,18.4,11111222 
TCOON,ioos:station:TCOON:074:1,2019-03-09T10:30:00Z,27.8516,-97.4820,0.0,18.6,11111222 
TCOON,ioos:station:TCOON:074:1,2019-03-09T11:30:00Z,27.8516,-97.4820,0.0,18.8,11111222 
TCOON,ioos:station:TCOON:074:1,2019-03-09T12:30:00Z,27.8516,-97.4820,0.0,18.5,11111222 
TCOON,ioos:station:TCOON:074:1,2019-03-09T13:30:00Z,27.8516,-97.4820,0.0,18.5,11111222 
TCOON,ioos:station:TCOON:074:1,2019-03-09T14:30:00Z,27.8516,-97.4820,0.0,18.5,11111222 
TCOON,ioos:station:TCOON:074:1,2019-03-09T15:30:00Z,27.8516,-97.4820,0.0,18.5,11111222 
TCOON,ioos:station:TCOON:074:1,2019-03-09T16:30:00Z,27.8516,-97.4820,0.0,18.8,11111222 
TCOON,ioos:station:TCOON:074:1,2019-03-09T17:30:00Z,27.8516,-97.4820,0.0,18.4,11111222 
TCOON,ioos:station:TCOON:074:1,2019-03-09T18:30:00Z,27.8516,-97.4820,0.0,18.2,11111222 
TCOON,ioos:station:TCOON:074:1,2019-03-09T19:30:00Z,27.8516,-97.4820,0.0,18.1,11111222 
TCOON,ioos:station:TCOON:074:1,2019-03-09T20:30:00Z,27.8516,-97.4820,0.0,20.1,11111222 
TCOON,ioos:station:TCOON:074:1,2019-03-09T21:30:00Z,27.8516,-97.4820,0.0,20.8,11111222 
TCOON,ioos:station:TCOON:074:1,2019-03-09T22:30:00Z,27.8516,-97.4820,0.0,21.1,11111222 
TCOON,ioos:station:TCOON:074:1,2019-03-09T23:30:00Z,27.8516,-97.4820,0.0,20.8,11111222 
TCOON,ioos:station:TCOON:074:1,2019-03-10T00:30:00Z,27.8516,-97.4820,0.0,20.5,11111222 
TCOON,ioos:station:TCOON:074:1,2019-03-10T01:30:00Z,27.8516,-97.4820,0.0,20.4,11111222 
TCOON,ioos:station:TCOON:074:1,2019-03-10T02:30:00Z,27.8516,-97.4820,0.0,20.3,11111222 
TCOON,ioos:station:TCOON:074:1,2019-03-10T03:30:00Z,27.8516,-97.4820,0.0,20.6,11111222 
TCOON,ioos:station:TCOON:074:1,2019-03-10T04:30:00Z,27.8516,-97.4820,0.0,20.6,11111222 
TCOON,ioos:station:TCOON:074:1,2019-03-10T05:30:00Z,27.8516,-97.4820,0.0,20.5,11111222 
TCOON,ioos:station:TCOON:074:1,2019-03-10T06:30:00Z,27.8516,-97.4820,0.0,20.6,11111222 
TCOON,ioos:station:TCOON:074:1,2019-03-10T07:30:00Z,27.8516,-97.4820,0.0,20.6,11111222 
TCOON,ioos:station:TCOON:074:1,2019-03-10T08:30:00Z,27.8516,-97.4820,0.0,20.6,11111222 
TCOON,ioos:station:TCOON:074:1,2019-03-10T09:30:00Z,27.8516,-97.4820,0.0,21.0,11111222 
TCOON,ioos:station:TCOON:074:1,2019-03-10T10:30:00Z,27.8516,-97.4820,0.0,21.0,11111222 
TCOON,ioos:station:TCOON:074:1,2019-03-10T11:30:00Z,27.8516,-97.4820,0.0,20.9,11111222 
TCOON,ioos:station:TCOON:074:1,2019-03-10T12:30:00Z,27.8516,-97.4820,0.0,20.7,11111222 
TCOON,ioos:station:TCOON:074:1,2019-03-10T13:30:00Z,27.8516,-97.4820,0.0,20.8,11111222 
TCOON,ioos:station:TCOON:074:1,2019-03-10T14:30:00Z,27.8516,-97.4820,0.0,20.7,11111222 
TCOON,ioos:station:TCOON:074:1,2019-03-10T15:30:00Z,27.8516,-97.4820,0.0,20.5,11111222 
TCOON,ioos:station:TCOON:074:1,2019-03-10T16:30:00Z,27.8516,-97.4820,0.0,20.6,11111222 
TCOON,ioos:station:TCOON:074:1,2019-03-10T17:30:00Z,27.8516,-97.4820,0.0,20.7,11111222 
TCOON,ioos:station:TCOON:074:1,2019-03-10T18:30:00Z,27.8516,-97.4820,0.0,20.7,11111222 
TCOON,ioos:station:TCOON:074:1,2019-03-10T19:30:00Z,27.8516,-97.4820,0.0,20.9,11111222 
TCOON,ioos:station:TCOON:074:1,2019-03-10T20:30:00Z,27.8516,-97.4820,0.0,20.9,11111222 
TCOON,ioos:station:TCOON:074:1,2019-03-10T21:30:00Z,27.8516,-97.4820,0.0,21.2,11111222 
TCOON,ioos:station:TCOON:074:1,2019-03-11T03:30:00Z,27.8516,-97.4820,0.0,21.2,11111222 
TCOON,ioos:station:TCOON:074:1,2019-03-11T04:30:00Z,27.8516,-97.4820,0.0,21.2,11111222 
TCOON,ioos:station:TCOON:074:1,2019-03-11T05:30:00Z,27.8516,-97.4820,0.0,21.2,11111222 
TCOON,ioos:station:TCOON:074:1,2019-03-11T06:30:00Z,27.8516,-97.4820,0.0,21.3,11111222 
TCOON,ioos:station:TCOON:074:1,2019-03-11T07:30:00Z,27.8516,-97.4820,0.0,21.2,11111222 
TCOON,ioos:station:TCOON:074:1,2019-03-11T08:30:00Z,27.8516,-97.4820,0.0,21.1,11111222 
TCOON,ioos:station:TCOON:074:1,2019-03-11T09:30:00Z,27.8516,-97.4820,0.0,21.1,11111222 
TCOON,ioos:station:TCOON:074:1,2019-03-11T10:30:00Z,27.8516,-97.4820,0.0,21.1,11111222 
TCOON,ioos:station:TCOON:074:1,2019-03-11T11:30:00Z,27.8516,-97.4820,0.0,21.0,11111222 
TCOON,ioos:station:TCOON:074:1,2019-03-11T12:30:00Z,27.8516,-97.4820,0.0,21.3,11111222 
TCOON,ioos:station:TCOON:074:1,2019-03-11T13:30:00Z,27.8516,-97.4820,0.0,21.2,11111222 
TCOON,ioos:station:TCOON:074:1,2019-03-11T14:30:00Z,27.8516,-97.4820,0.0,21.1,11111222 
TCOON,ioos:station:TCOON:074:1,2019-03-11T15:30:00Z,27.8516,-97.4820,0.0,21.1,11111222 
TCOON,ioos:station:TCOON:074:1,2019-03-11T16:30:00Z,27.8516,-97.4820,0.0,21.2,11111222 
TCOON,ioos:station:TCOON:074:1,2019-03-11T17:30:00Z,27.8516,-97.4820,0.0,21.3,11111222 
TCOON,ioos:station:TCOON:074:1,2019-03-11T18:30:00Z,27.8516,-97.4820,0.0,21.6,11111222 
TCOON,ioos:station:TCOON:074:1,2019-03-11T19:30:00Z,27.8516,-97.4820,0.0,21.9,11111222 
TCOON,ioos:station:TCOON:074:1,2019-03-11T20:30:00Z,27.8516,-97.4820,0.0,22.0,11111222 
TCOON,ioos:station:TCOON:074:1,2019-03-11T21:30:00Z,27.8516,-97.4820,0.0,22.1,11111222 
TCOON,ioos:station:TCOON:074:1,2019-03-11T22:30:00Z,27.8516,-97.4820,0.0,22.2,11111222 
TCOON,ioos:station:TCOON:074:1,2019-03-11T23:30:00Z,27.8516,-97.4820,0.0,22.2,11111222 
TCOON,ioos:station:TCOON:074:1,2019-03-12T00:30:00Z,27.8516,-97.4820,0.0,22.3,11111222 
TCOON,ioos:station:TCOON:074:1,2019-03-12T01:30:00Z,27.8516,-97.4820,0.0,22.2,11111222 
TCOON,ioos:station:TCOON:074:1,2019-03-12T02:30:00Z,27.8516,-97.4820,0.0,22.1,11111222 
TCOON,ioos:station:TCOON:074:1,2019-03-12T03:30:00Z,27.8516,-97.4820,0.0,22.0,11111222 
TCOON,ioos:station:TCOON:074:1,2019-03-12T04:30:00Z,27.8516,-97.4820,0.0,21.9,11111222 
TCOON,ioos:station:TCOON:074:1,2019-03-12T05:30:00Z,27.8516,-97.4820,0.0,21.8,11111222 
TCOON,ioos:station:TCOON:074:1,2019-03-12T06:30:00Z,27.8516,-97.4820,0.0,21.8,11111222 
TCOON,ioos:station:TCOON:074:1,2019-03-12T07:30:00Z,27.8516,-97.4820,0.0,22.0,11111222 
TCOON,ioos:station:TCOON:074:1,2019-03-12T08:30:00Z,27.8516,-97.4820,0.0,22.0,11111222 
TCOON,ioos:station:TCOON:074:1,2019-03-12T09:30:00Z,27.8516,-97.4820,0.0,22.0,11111222 
TCOON,ioos:station:TCOON:074:1,2019-03-12T10:30:00Z,27.8516,-97.4820,0.0,22.2,11111222 
TCOON,ioos:station:TCOON:074:1,2019-03-12T11:30:00Z,27.8516,-97.4820,0.0,22.2,11111222 
TCOON,ioos:station:TCOON:074:1,2019-03-12T12:30:00Z,27.8516,-97.4820,0.0,22.2,11111222 
TCOON,ioos:station:TCOON:074:1,2019-03-12T13:30:00Z,27.8516,-97.4820,0.0,22.2,11111222 
TCOON,ioos:station:TCOON:074:1,2019-03-12T14:30:00Z,27.8516,-97.4820,0.0,22.1,11111222 
TCOON,ioos:station:TCOON:074:1,2019-03-12T15:30:00Z,27.8516,-97.4820,0.0,22.2,11111222 